FENGYUN 1C DEB, 31805

Orbit data source: Space-Track

FENGYUN 1C DEB, 31805 is space debris in SSO originally from a launch on Mon, 10 May 1999 UTC launched from the Taiyaun Space Center, China (TSC). Fengyun 1C debris stems from the Chinese weather satellite Fengyun-1C, which was intentionally destroyed by a Chinese anti-satellite missile in 2007. This event dramatically increased the amount of space debris, with thousands of trackable fragments posing hazards to satellites and human spaceflight. The Fengyun 1C debris cloud has become a focal point in discussions about space sustainability and the need for international regulations to prevent the creation of new debris.

Loading next visibility...
Identifier
31805, 1999-025CGT
Orbit
SSO
Country
Flag of CNCN / PRC
Related business
Manufacturer
Unknown
Mission
Spacecraft
Bus & Motor
Unknown
Mass
Unknown
Launch date (UTC)
1999-05-10 (27 years ago)
Launch vehicle
Unknown
Launch site
Taiyaun Space Center, China (TSC)
Object type
Payload
Rocket body
Debris
Shape & HBR
Unknown shape, 0.1 m
Radar Cross Section
Small (<0.1 m²)

Expand to show TLE details & history
Last TLE update: 21 hours ago

TLE from 21 hours ago
0 FENGYUN 1C DEB
1 31805U 99025CGT 26163.72635133  .00011643  00000-0  29887-2 0  9991
2 31805  98.3777 139.4632 0435811   1.4653 358.7684 14.06010608649184
Epoch: 2026-06-12T17:25Z
TLE epoch observation values (Epoch: 2026-06-12T17:25:56.754Z)
Latitude
-0.00009°
Longitude
-23.07492°
Altitude
559.97 km
Speed
7.745 km/s
True Right ascension
09h 17m 51s
True Declination
0° 00' 00"
Sunlit
Object was in daylight at epoch
Visualization orbit readout
Latitude
Unknown
Longitude
Unknown
Altitude
Unknown
Speed
Unknown
Apparent Right ascension
Unknown
Apparent Declination
Unknown
Sunlit
N/A
Visualization observer readout
Local Sidereal Time
01:17:20
Azimuth
Unknown
Elevation
Unknown
Doppler factor
Unknown
Orbital elements
Apogee altitude
1,186.1 km
Perigee altitude
554.318 km
Semi-major axis
7,248.346 km
Eccentricity
0.04358
Inclination
98.3777°
RAAN
139.4632°
Arg. of periapsis
1.4653°
True anomaly
358.65489°
Mean anomaly
358.7684°
Eccentric anomaly
358.71228°
Mean motion
3.5171 °/min
Orbital period
102.36 mins
BSTAR
0.0029887
Loading maneuver chart data...
Computing Atmospheric mass density...

Documentation

Showing up to 5 results
|